Hourly Weather Roundup
Issued by NWS Central Illinois

Home | Current Version | Previous Version | Text Only | Print | Product List | Glossary On
Versions: 1 2 3 4 5 6 7 8 9 10 11 12 13 14 15 16 17 18 19 20 21 22 23 24 25 26 27 28 29 30 31 32 33 34 35 36 37 38 39 40 41 42 43 44 45 46 47 48 49 50
000
NZUS43 KILX 071110
HWRILX

AREA WEATHER ROUNDUP
NATIONAL WEATHER SERVICE, LINCOLN IL
500 AM CST WED DEC 07 2016


CITY           SKY/WX    TMP DP  RH WIND       PRES   REMARKS
BLOOMINGTON    CLOUDY    27  19  72 W14       30.10R WCI  16
CHAMPAIGN      PTCLDY    29  21  72 W9        30.12R WCI  20
DANVILLE       CLOUDY    28  21  77 W8        30.08R WCI  19
DECATUR        MOCLDY    30  19  63 W8        30.14R WCI  22
EFFINGHAM      MOCLDY    30  24  77 W5        30.18R WCI  25
FLORA          PTCLDY    29  23  79 SW5       30.19R WCI  24
GALESBURG      CLOUDY    26  19  73 W10       30.12R WCI  16
JACKSONVILLE   CLOUDY    29  21  73 W7        30.16S WCI  22
LACON          PTCLDY    27  18  68 W8        30.10S WCI  19
LAWRENCEVILLE  CLOUDY    28  23  81 SW5       30.17R WCI  23
LITCHFIELD     CLOUDY    30  21  68 NW7       30.17R WCI  23
$$


CITY           SKY/WX    TMP DP  RH WIND       PRES   REMARKS
LINCOLN        MOCLDY    30  20  66 W6        30.15R WCI  24
MACOMB         CLOUDY    28  18  68 NW12      30.17R WCI  18
MATTOON        PTCLDY    28  20  71 W7        30.14R WCI  21
MT CARMEL AP   PTCLDY    29  26  87 W5        30.17R WCI  24
OLNEY-NOBLE AP PTCLDY    30  25  80 SW5       30.19R WCI  25
PARIS          CLOUDY    28  25  89 W6        30.13R WCI  22
PEORIA         CLOUDY    28  16  60 W10G18    30.13R WCI  19
PONTIAC        MOCLDY    29  23  79 W15G21    30.11R WCI  17
RANTOUL        CLOUDY    31  24  74 W8        30.11R WCI  23
SPRINGFIELD    MOCLDY    31  21  66 W6        30.17R WCI  25
TAYLORVILLE    PTCLDY    30  21  70 W8        30.17R WCI  22
$$

...REGIONAL REPORTS...


CITY           SKY/WX    TMP DP  RH WIND       PRES   REMARKS
CHICAGO O`HARE MOCLDY    25  17  72 W18       30.03R WCI  11
KANKAKEE       PTCLDY    28  20  73 W14       30.09R WCI  17
MOLINE         CLOUDY    25  14  63 W15G26    30.10S WCI  13
MOUNT STERLING CLOUDY    29  17  61 NW9       30.16S WCI  20
MOUNT VERNON   NOT AVBL
PITTSFIELD     CLOUDY    30  18  61 NW8       30.17F WCI  22
QUINCY         CLOUDY    29  16  58 NW9       30.16S WCI  20
ROCKFORD       CLOUDY    23  15  71 W16G22    30.06R WCI  10
$$


CITY           SKY/WX    TMP DP  RH WIND       PRES   REMARKS
BURLINGTON     CLOUDY    26  16  65 W7        30.13S WCI  18
CEDAR RAPIDS   MOCLDY    19  15  84 W17       30.10R WCI   4
DES MOINES     MOCLDY    20  10  65 NW10      30.16R WCI   9
KIRKSVILLE     CLOUDY    27  13  55 W6        30.16S WCI  20
OTTUMWA        CLOUDY    24  13  62 W12       30.13S WCI  13
ST LOUIS       MOCLDY    32  16  51 W7        30.19R WCI  26
$$


CITY           SKY/WX    TMP DP  RH WIND       PRES   REMARKS
TERRE HAUTE    PTCLDY    27  22  81 W5        30.13R WCI  22
EVANSVILLE     PTCLDY    34  25  69 NW3       30.18R
INDIANAPOLIS   PTCLDY    25  20  81 SW6       30.09R WCI  18
LAFAYETTE      CLEAR     27  20  75 W6        30.09R WCI  20
MADISON        CLOUDY    21  14  74 W8        29.98R WCI  11
MILWAUKEE      CLEAR     25  15  66 W16G23    29.96R WCI  12
$$






USA.gov is the U.S. government's official web portal to all federal, state and local government web resources and services.